Location: Marsån
(66.4167°N, 22.2833°E)
Time: 10:19:37
(UTC+00:00)

COSMOS 2406 - Pass Details

Date: 24 February 2024
Orbit: 842 x 864 km, 71.0° (Epoch: 15 April)

Event Time Altitude Azimuth Distance (km) Brightness Sun altitude
Rises 20:28:16 0° 248° (WSW) 3,412 6.6 -28.5°
Reaches altitude 10° 20:30:44 10° 251° (WSW) 2,481 5.8 -28.7°
Maximum altitude 20:36:25 70° 335° (NNW) 913 3.4 -29.0°
Enters shadow 20:38:40 38° 47° (NE) 1,291 4.1 -29.1°
